Regional Weather Roundup
Issued by NWS

Home | Current Version | Previous Version | Graphics & Text | Print | Product List | Glossary On
Versions: 1 2 3 4 5 6 7 8 9 10 11 12 13 14 15 16 17 18 19 20 21 22 23 24 25 26 27 28
000
ASUS45 KCYS 200010
RWRWY

WYOMING REGIONAL WEATHER ROUNDUP
NATIONAL WEATHER SERVICE CHEYENNE WY
600 PM MDT THU APR 19 2018

NOTE:  "FAIR" INDICATES FEW OR NO CLOUDS BELOW 12,000 FEET
WITH NO SIGNIFICANT WEATHER AND/OR OBSTRUCTIONS TO VISIBILITY.

WYZ001-200100-
YELLOWSTONE NATIONAL PARK

CITY           SKY/WX    TMP DP  RH WIND       PRES   REMARKS
LK YELLOWSTONE   N/A     41  18  39 VRB3      30.05R
6HR MIN TEMP:  38; 6HR MAX TEMP:  44;

W YELLOWSTONE  NOT AVBL

$$
WYZ002>013-054>058-071-098>099-200100-
NORTHERN WYOMING

CITY           SKY/WX    TMP DP  RH WIND       PRES   REMARKS
JACKSON        FAIR      53  18  25 NE13      29.92R
CODY           FAIR      53  20  27 E3        30.03R
GREYBULL       FAIR      57  27  31 NW6       29.98S
6HR MIN TEMP:  52; 6HR MAX TEMP:  58;

WORLAND        FAIR      57  27  31 N14       29.96F
6HR MIN TEMP:  52; 6HR MAX TEMP:  60;

SHERIDAN       FAIR      61  26  26 SE13      30.00R
6HR MIN TEMP:  55; 6HR MAX TEMP:  63;

BUFFALO        FAIR      58  25  28 S17G24    30.04S
6HR MIN TEMP:  51; 6HR MAX TEMP:  60;

GILLETTE       FAIR      56  29  35 SE20G26   30.05S
6HR MIN TEMP:  53; 6HR MAX TEMP:  59;

HULETT         FAIR      55  28  35 S12G17    30.11S
NEWCASTLE      FAIR      54  27  35 SE25G36   30.11R

$$
WYZ014>020-022>026-101>103-200100-
CENTRAL WYOMING

CITY           SKY/WX    TMP DP  RH WIND       PRES   REMARKS
BIG PINEY      FAIR      56   7  14 SE17G32   29.90F
6HR MIN TEMP:  49; 6HR MAX TEMP:  58;

PINEDALE       FAIR      55   9  15 SE20G26   29.93S
DUBOIS         FAIR      45  16  31 SE17G23   29.99S
LANDER         FAIR      52  22  30 NW7       29.97R
6HR MIN TEMP:  48; 6HR MAX TEMP:  54;

RIVERTON       FAIR      54  24  31 NW10      29.96F
6HR MIN TEMP:  48; 6HR MAX TEMP:  57;

CASPER         FAIR      63  20  19 E17G23    29.92F
6HR MIN TEMP:  51; 6HR MAX TEMP:  65;

DOUGLAS        FAIR      60  24  25 SE24G40   30.00F
6HR MIN TEMP:  51; 6HR MAX TEMP:  63;


$$
WYZ021-027>030-104>119-200100-
SOUTHERN WYOMING

CITY           SKY/WX    TMP DP  RH WIND       PRES   REMARKS
EVANSTON       FAIR      56   5  13 S25G38    29.84S
6HR MIN TEMP:  47; 6HR MAX TEMP:  59;

KEMMERER       FAIR      54  -2  10 SE16G24   29.88R
FORT BRIDGER   FAIR      59   0   9 S16G24    29.90R
ROCK SPRINGS   FAIR      55   3  12 SE3       29.89F
6HR MIN TEMP:  52; 6HR MAX TEMP:  59;

DIXON          FAIR      62  15  15 S3        29.89S
RAWLINS        FAIR      60   6  11 N5        29.90F
6HR MIN TEMP:  55; 6HR MAX TEMP:  63;

SARATOGA       FAIR      59   5  11 N3        29.90F
LARAMIE        FAIR      53  17  24 SE30G41   29.98F
6HR MIN TEMP:  49; 6HR MAX TEMP:  55;

CHEYENNE       FAIR      55  20  25 SE29G40   30.03F
6HR MIN TEMP:  49; 6HR MAX TEMP:  59;

TORRINGTON     FAIR      61  27  27 SE23G33   30.04F
6HR MIN TEMP:  55; 6HR MAX TEMP:  64;

PINE BLUFFS    FAIR      55  23  28 SE28G36   30.05F

$$




USA.gov is the U.S. government's official web portal to all federal, state and local government web resources and services.